TimeAKDT,TemperatureF,Dew PointF,Humidity,Sea Level PressureIn,VisibilityMPH,Wind Direction,Wind SpeedMPH,Gust SpeedMPH,PrecipitationIn,Events,Conditions,WindDirDegrees,DateUTC
12:04 AM,35.6,33.8,93,30.27,10.0,Calm,Calm,-,N/A,,Partly Cloudy,0,2012-10-07 08:04:00
12:53 AM,34.0,33.1,96,30.36,10.0,WSW,4.6,-,N/A,,Clear,250,2012-10-07 08:53:00
1:07 AM,33.8,33.8,100,30.29,10.0,SW,3.5,-,N/A,,Scattered Clouds,220,2012-10-07 09:07:00
1:53 AM,33.1,32.0,96,30.35,5.0,South,3.5,-,N/A,,Mostly Cloudy,170,2012-10-07 09:53:00
1:56 AM,33.8,33.8,100,30.29,1.8,South,3.5,-,N/A,,Mostly Cloudy,170,2012-10-07 09:56:00
1:59 AM,33.8,32.0,93,30.29,0.8,South,3.5,-,N/A,,Mist,190,2012-10-07 09:59:00
2:07 AM,33.8,33.8,100,30.29,0.5,Calm,Calm,-,N/A,Fog,Fog,0,2012-10-07 10:07:00
2:37 AM,32.0,32.0,100,30.29,0.8,Calm,Calm,-,N/A,,Mist,0,2012-10-07 10:37:00
2:44 AM,32.0,32.0,100,30.29,1.0,South,3.5,-,N/A,,Mist,180,2012-10-07 10:44:00
2:53 AM,32.0,32.0,100,30.36,2.5,Calm,Calm,-,N/A,,Overcast,0,2012-10-07 10:53:00
3:00 AM,32.0,32.0,100,30.29,5.0,Calm,Calm,-,N/A,,Mostly Cloudy,0,2012-10-07 11:00:00
3:13 AM,32.0,32.0,100,30.29,10.0,Calm,Calm,-,N/A,,Scattered Clouds,0,2012-10-07 11:13:00
3:22 AM,32.0,32.0,100,30.29,10.0,Calm,Calm,-,N/A,,Mostly Cloudy,0,2012-10-07 11:22:00
3:53 AM,32.0,30.9,96,30.36,10.0,Calm,Calm,-,N/A,,Overcast,0,2012-10-07 11:53:00
4:53 AM,32.0,32.0,100,30.34,10.0,SSE,3.5,-,N/A,,Overcast,150,2012-10-07 12:53:00
5:05 AM,33.8,33.8,100,30.28,0.5,ESE,4.6,-,N/A,Fog,Fog,110,2012-10-07 13:05:00
5:53 AM,32.0,32.0,100,30.33,0.5,East,3.5,-,N/A,Fog,Fog,100,2012-10-07 13:53:00
6:33 AM,32.0,32.0,100,30.27,1.0,ESE,3.5,-,N/A,,Mist,110,2012-10-07 14:33:00
6:53 AM,32.0,30.9,96,30.33,4.0,SE,4.6,-,N/A,,Overcast,130,2012-10-07 14:53:00
7:53 AM,32.0,32.0,100,30.33,3.0,SE,4.6,-,N/A,,Overcast,140,2012-10-07 15:53:00
8:07 AM,32.0,32.0,100,30.26,2.5,SE,4.6,-,N/A,,Overcast,130,2012-10-07 16:07:00
8:22 AM,32.0,32.0,100,30.26,6.0,SE,5.8,-,N/A,,Overcast,130,2012-10-07 16:22:00
8:53 AM,32.0,30.9,96,30.33,10.0,East,5.8,-,N/A,,Mostly Cloudy,100,2012-10-07 16:53:00
9:04 AM,32.0,30.2,93,30.26,10.0,ESE,5.8,-,N/A,,Mostly Cloudy,110,2012-10-07 17:04:00
9:53 AM,32.0,30.9,96,30.34,10.0,Calm,Calm,-,N/A,,Overcast,0,2012-10-07 17:53:00
10:53 AM,34.0,33.1,96,30.34,10.0,ESE,4.6,-,N/A,,Overcast,120,2012-10-07 18:53:00
11:53 AM,37.9,35.1,89,30.32,10.0,ESE,4.6,-,N/A,,Overcast,110,2012-10-07 19:53:00
12:53 PM,39.0,36.0,89,30.32,10.0,NNE,4.6,-,N/A,,Overcast,20,2012-10-07 20:53:00
1:53 PM,39.9,37.0,89,30.30,10.0,ENE,5.8,-,N/A,,Overcast,70,2012-10-07 21:53:00
2:53 PM,41.0,37.0,86,30.30,10.0,Calm,Calm,-,N/A,,Overcast,0,2012-10-07 22:53:00
3:53 PM,41.0,37.0,86,30.28,10.0,Calm,Calm,-,N/A,,Overcast,0,2012-10-07 23:53:00
4:53 PM,42.1,36.0,79,30.28,10.0,Calm,Calm,-,N/A,,Overcast,0,2012-10-08 00:53:00
5:53 PM,41.0,37.0,86,30.27,10.0,Calm,Calm,-,N/A,,Overcast,0,2012-10-08 01:53:00
6:53 PM,41.0,37.9,89,30.27,10.0,Calm,Calm,-,0.00,Rain,Light Rain,0,2012-10-08 02:53:00
7:53 PM,39.9,37.9,93,30.27,10.0,WSW,3.5,-,0.01,Rain,Light Rain,240,2012-10-08 03:53:00
8:53 PM,39.9,37.9,93,30.27,10.0,West,3.5,-,0.01,Rain,Light Rain,270,2012-10-08 04:53:00
9:53 PM,39.0,37.9,96,30.25,10.0,WSW,3.5,-,0.01,Rain,Light Rain,240,2012-10-08 05:53:00
10:53 PM,39.0,37.9,96,30.25,10.0,Calm,Calm,-,0.01,,Overcast,0,2012-10-08 06:53:00
11:53 PM,39.0,37.9,96,30.24,10.0,Calm,Calm,-,0.00,Rain,Light Rain,0,2012-10-08 07:53:00